Weather History for Hibbing, MN

Change the Weather History Date:

Tuesday, September 24, 2013

  Actual Average Record
Temperature  
Mean Temperature 54 °F -  
Max Temperature 73 °F 62 °F 82 °F (2007)
Min Temperature 37 °F 36 °F 21 °F (2000)
Degree Days  
Heating Degree Days 10    
Growing Degree Days 4 (Base 50)    
Moisture  
Dew Point 43 °F    
Average Humidity 88    
Maximum Humidity 100    
Minimum Humidity 46    
Precipitation  
Precipitation 0.00 in - - ()
Sea Level Pressure  
Sea Level Pressure 29.97 in    
Wind  
Wind Speed 1 mph (SSE)    
Max Wind Speed 14 mph    
Max Gust Speed 18 mph    
Visibility 4 miles    
Events Fog    
Averages and records for this station are not official NWS values.
T = Trace of Precipitation, MM = Missing Value Source: NWS Daily Summary

Daily Weather History Graph

Daily Weather History Graph

Search for Another Location

Airport:

Trip Planner

Search our weather history database for the weather conditions in past years. The results will help you decide how hot, cold, wet, or windy it might be!

Date:

Astronomy

Sep. 24, 2013 Rise Set
Actual Time 7:01 AM CDT 7:04 PM CDT
Civil Twilight 6:30 AM CDT 7:34 PM CDT
Nautical Twilight 5:54 AM CDT 8:10 PM CDT
Astronomical Twilight 5:17 AM CDT 8:47 PM CDT
Moon 10:01 PM CDT (9/24) 12:37 PM CDT (9/24)
Length of Visible Light 13h 04m
Length of Day
12h 03m
Waning Gibbous, 73% of the Moon is Illuminated
Sep 24
Waning Gibbous
Sep 26
Last Quarter
Oct 4
New
Oct 11
First Quarter
Oct 18
Full

Hourly Weather History & Observations

Time (CDT) Temp. Windchill Dew Point Humidity Pressure Visibility Wind Dir Wind Speed Gust Speed Precip Events Conditions
12:24 AM 46.4 °F - 44.6 °F 93% 29.95 in 1.5 mi Calm Calm - N/A   Clear
12:33 AM 46.4 °F - 44.6 °F 93% 29.95 in 0.8 mi Calm Calm - N/A   Clear
12:38 AM 46.4 °F - 44.6 °F 93% 29.95 in 2.5 mi Calm Calm - N/A   Clear
12:45 AM 46.4 °F - 44.6 °F 93% 29.95 in 3.0 mi Calm Calm - N/A   Clear
12:51 AM 46.4 °F - 44.6 °F 93% 29.95 in 1.8 mi Calm Calm - N/A   Clear
12:53 AM 46.0 °F - 44.1 °F 93% 29.96 in 1.2 mi Calm Calm - N/A   Clear
1:01 AM 44.6 °F - 42.8 °F 93% 29.95 in 0.5 mi Calm Calm - N/A Fog Fog
1:07 AM 44.6 °F 43.1 °F 42.8 °F 93% 29.95 in 2.0 mi SE 3.5 mph - N/A   Clear
1:14 AM 44.6 °F - 42.8 °F 93% 29.95 in 7.0 mi Calm Calm - N/A   Clear
1:24 AM 44.6 °F - 42.8 °F 93% 29.95 in 1.8 mi Calm Calm - N/A   Clear
1:42 AM 39.2 °F - 39.2 °F 100% 29.95 in 0.5 mi Calm Calm - N/A Fog Fog
1:51 AM 41.0 °F - 39.2 °F 93% 29.95 in 2.5 mi Calm Calm - N/A   Clear
1:53 AM 42.1 °F - 39.9 °F 92% 29.97 in 7.0 mi Calm Calm - N/A   Clear
2:21 AM 42.8 °F - 39.2 °F 87% 29.96 in 6.0 mi Calm Calm - N/A   Scattered Clouds
2:31 AM 42.8 °F - 39.2 °F 87% 29.96 in 2.0 mi Calm Calm - N/A   Mostly Cloudy
2:42 AM 41.0 °F - 39.2 °F 93% 29.96 in 4.0 mi Calm Calm - N/A   Scattered Clouds
2:53 AM 41.0 °F - 39.9 °F 96% 29.97 in 10.0 mi Calm Calm - N/A   Scattered Clouds
3:07 AM 39.2 °F - 39.2 °F 100% 29.96 in 4.0 mi Calm Calm - N/A   Mostly Cloudy
3:16 AM 39.2 °F - 37.4 °F 93% 29.96 in 9.0 mi Calm Calm - N/A   Scattered Clouds
3:45 AM 39.2 °F - 37.4 °F 93% 29.96 in 9.0 mi Calm Calm - N/A   Mostly Cloudy
3:53 AM 41.0 °F - 37.9 °F 89% 29.97 in 10.0 mi Calm Calm - N/A   Mostly Cloudy
4:11 AM 39.2 °F - 37.4 °F 93% 29.96 in 10.0 mi Calm Calm - N/A   Scattered Clouds
4:20 AM 39.2 °F - 37.4 °F 93% 29.96 in 1.8 mi Calm Calm - N/A   Clear
4:36 AM 37.4 °F - 37.4 °F 100% 29.96 in 3.0 mi Calm Calm - N/A   Clear
4:53 AM 37.9 °F - 37.0 °F 97% 29.98 in 10.0 mi Calm Calm - N/A   Partly Cloudy
5:43 AM 39.2 °F - 37.4 °F 93% 29.96 in 2.5 mi Calm Calm - N/A   Mostly Cloudy
5:48 AM 37.4 °F - 35.6 °F 93% 29.96 in 0.8 mi Calm Calm - N/A   Mist
5:53 AM 37.9 °F - 36.0 °F 93% 29.98 in 0.5 mi Calm Calm - N/A Fog Fog
6:13 AM 39.2 °F - 37.4 °F 93% 29.96 in 2.0 mi Calm Calm - N/A   Overcast
6:23 AM 39.2 °F - 37.4 °F 93% 29.96 in 1.0 mi Calm Calm - N/A   Mist
6:38 AM 39.2 °F - 37.4 °F 93% 29.97 in 2.5 mi Calm Calm - N/A   Overcast
6:46 AM 37.4 °F - 37.4 °F 100% 29.97 in 0.8 mi Calm Calm - N/A   Mist
6:53 AM 37.9 °F - 36.0 °F 93% 29.99 in 0.5 mi Calm Calm - N/A Fog Fog
7:01 AM 39.2 °F - 37.4 °F 93% 29.97 in 0.2 mi Calm Calm - N/A Fog Fog
7:18 AM 37.4 °F - 37.4 °F 100% 29.97 in 1.0 mi Calm Calm - N/A   Mist
7:31 AM 39.2 °F - 37.4 °F 93% 29.97 in 0.2 mi Calm Calm - N/A Fog Fog
7:40 AM 39.2 °F - 37.4 °F 93% 29.97 in 0.5 mi Calm Calm - N/A Fog Fog
7:53 AM 41.0 °F - 39.0 °F 93% 30.00 in 1.5 mi Calm Calm - N/A   Overcast
8:01 AM 42.8 °F - 39.2 °F 87% 29.97 in 3.0 mi Calm Calm - N/A   Mostly Cloudy
8:17 AM 44.6 °F - 44.6 °F 100% 29.97 in 7.0 mi Calm Calm - N/A   Scattered Clouds
8:53 AM 51.1 °F - 48.0 °F 89% 30.00 in 10.0 mi SSE 4.6 mph - N/A   Clear
9:53 AM 57.0 °F - 51.1 °F 81% 30.00 in 10.0 mi SSE 5.8 mph - N/A   Clear
10:53 AM 62.1 °F - 52.0 °F 70% 30.00 in 10.0 mi South 5.8 mph - N/A   Clear
11:53 AM 66.9 °F - 53.1 °F 61% 29.99 in 10.0 mi SSE 5.8 mph - N/A   Clear
12:53 PM 70.0 °F - 53.1 °F 55% 29.98 in 10.0 mi South 6.9 mph - N/A   Clear
1:53 PM 72.0 °F - 52.0 °F 49% 29.97 in 10.0 mi SSE 13.8 mph 18.4 mph N/A   Partly Cloudy
2:53 PM 72.0 °F - 51.1 °F 48% 29.95 in 10.0 mi SSE 5.8 mph - N/A   Clear
3:53 PM 71.1 °F - 52.0 °F 51% 29.95 in 10.0 mi Variable 5.8 mph - N/A   Clear
4:53 PM 72.0 °F - 50.0 °F 46% 29.95 in 10.0 mi South 6.9 mph - N/A   Clear
5:53 PM 69.1 °F - 52.0 °F 54% 29.96 in 10.0 mi South 3.5 mph - N/A   Partly Cloudy
6:53 PM 64.0 °F - 53.1 °F 67% 29.97 in 10.0 mi Calm Calm - N/A   Clear
7:53 PM 55.0 °F - 52.0 °F 89% 29.98 in 10.0 mi Calm Calm - N/A   Clear
8:53 PM 51.1 °F - 48.9 °F 92% 29.99 in 10.0 mi Calm Calm - N/A   Clear
9:53 PM 50.0 °F - 46.9 °F 89% 29.98 in 10.0 mi Calm Calm - N/A   Clear
10:12 PM 48.2 °F - 46.4 °F 93% 29.96 in 1.2 mi Calm Calm - N/A   Clear
10:19 PM 48.2 °F - 46.4 °F 93% 29.96 in 0.5 mi Calm Calm - N/A Fog Fog
10:24 PM 48.2 °F - 46.4 °F 93% 29.97 in 1.0 mi Calm Calm - N/A   Clear
10:29 PM 48.2 °F - 46.4 °F 93% 29.97 in 3.0 mi Calm Calm - N/A   Clear
10:53 PM 46.0 °F - 46.0 °F 100% 29.99 in 5.0 mi Calm Calm - N/A   Clear
10:56 PM 46.4 °F - 44.6 °F 93% 29.97 in 1.8 mi Calm Calm - N/A   Partly Cloudy
10:59 PM 46.4 °F - 44.6 °F 93% 29.97 in 0.8 mi Calm Calm - N/A   Mist
11:11 PM 46.4 °F - 44.6 °F 93% 29.97 in 0.5 mi Calm Calm - N/A Fog Fog
11:21 PM 44.6 °F - 44.6 °F 100% 29.97 in 0.5 mi Calm Calm - N/A Fog Fog
11:27 PM 46.4 °F - 44.6 °F 93% 29.97 in 1.0 mi Calm Calm - N/A   Clear
11:40 PM 46.4 °F - 44.6 °F 93% 29.97 in 0.8 mi Calm Calm - N/A   Clear
11:51 PM 44.6 °F - 44.6 °F 100% 29.97 in 1.0 mi Calm Calm - N/A   Clear
11:53 PM 45.0 °F - 44.1 °F 97% 29.99 in 1.0 mi Calm Calm - N/A   Clear